カタログに戻る

STARLINK-37757

運用中通信VLEO
NORAD 69244·PAYLOAD·🇺🇸 United States

打ち上げ May 29, 2026 から Cape Canaveral Space Force Station

Loading…

次のパス (今後24時間)

TLE

最新Source: CelesTrak SupGP

元期: Sep 15, 2026, 03:18 UTC

1 69244C 26117G   26258.13798611 -.00057175  00000+0 -16894-2 0  2585
2 69244  53.1568 178.7714 0001251  90.5538 297.0798 15.34416350    14

AllMySatでSTARLINK-37757をリアルタイム追跡

Download on the App Store